Regional Weather Roundup
Issued by NWS

Home | Current Version | Previous Version | Graphics & Text | Print | Product List | Glossary On
Versions: 1 2 3 4 5 6 7 8 9 10 11 12 13 14 15 16 17 18 19 20 21 22 23 24 25 26 27 28 29 30 31 32 33 34 35 36 37 38 39 40 41 42 43 44 45 46 47 48 49 50
305
ASUS43 KMPX 221401
RWRMN
WEATHER ROUNDUP FOR MINNESOTA
NATIONAL WEATHER SERVICE TWIN CITIES/CHANHASSEN MN
800 AM CST THU FEB 22 2018


NOTE: "FAIR" INDICATES FEW OR NO CLOUDS BELOW 12,000 FEET WITH NO
SIGNIFICANT WEATHER AND/OR OBSTRUCTIONS TO VISIBILITY. N/A MEANS
CURRENT SKY AND/OR WEATHER CONDITIONS ARE NOT AVAILABLE.

MNZ060>063-068>070-221500-
   Twin Cities Metro

CITY           SKY/WX    TMP DP  RH WIND       PRES   REMARKS
TWIN CITIES    MOCLDY    13   5  70 SE8       30.59S WCI   2
ST PAUL        FAIR      12   6  77 SE6       30.61S WCI   3
CRYSTAL        FAIR      11   5  77 NE3       30.58S
BLAINE         MOCLDY    10   7  85 E3        30.58S
LAKEVILLE        N/A      9   7  92 E3        30.57F
EDEN PRAIRIE   MOCLDY    12   6  77 E5        30.57F WCI   4
SOUTH ST PAUL  MOCLDY    12   6  75 CALM      30.60S
LAKE ELMO      FAIR      10   5  79 E6        30.59F WCI   1
$$
MNZ001>005-007-008-013>017-022>024-027-028-221500-
   Northwest Minnesota

CITY           SKY/WX    TMP DP  RH WIND       PRES   REMARKS
BEMIDJI        FAIR      -5  -9  84 SE6       30.46F WCI -18
HALLOCK        FAIR      -2  -8  78 S14       30.42F WCI -21
ROSEAU         FAIR      -2  -8  78 S8        30.45S WCI -17
WARROAD        FAIR      -2  -8  78 S3        30.46S
THIEF RVR FALL FAIR      -1  -7  75 SE9       30.45S WCI -16
CROOKSTON      FAIR      -2  -8  78 S10       30.46R WCI -19
FOSSTON        FAIR       0  -6  78 SE5       30.43S WCI -10
DETROIT LAKES  FAIR       3  -2  78 SE10      30.46R WCI -12
MOORHEAD       FAIR       5  -2  72 S15       30.47R WCI -13
PARK RAPIDS    FAIR       1  -3  83 SE9       30.47F WCI -14
MAHNOMEN       FAIR       7  -3  64 SE10      30.41F WCI  -8
$$
MNZ006-009>011-018-025>026-221500-
   North Central Minnesota

CITY           SKY/WX    TMP DP  RH WIND       PRES   REMARKS
BAUDETTE       FAIR      -9 -12  87 SE6       30.47S WCI -22
FLAG ISLAND    FAIR      -8 -11  84 SE6       30.46R WCI -21
INTL FALLS     FAIR     -11 -14  86 SE5       30.52S WCI -23
WASKISH        FAIR      -6  -8  92 SE5       30.49S WCI -17
BIG FORK       FAIR     -11 -18  70 CALM      30.52R
LONGVILLE      FAIR     -15 -20  76 CALM      30.53R
GRAND RAPIDS   FAIR      -6 -10  83 CALM      30.56R
CRANE LAKE     FAIR     -20 -26  76 CALM      30.58S
ORR            FAIR      -2  -8  78 CALM      30.50S
COOK             N/A    -15 -20  76 CALM      30.55R
WALKER         FAIR      -3  -8  81 E6        30.49S WCI -15
$$
MNZ012-019>021-037-221500-
   Northeast Minnesota

CITY           SKY/WX    TMP DP  RH WIND       PRES   REMARKS
DULUTH         FAIR      -2  -4  91 CALM      30.55F
ELY            FAIR     -11 -17  77 CALM      30.56R
HIBBING        FAIR     -17 -21  82 CALM      30.55S
EVELETH        FAIR     N/A N/A N/A CALM      30.57S
DULUTH HARBOR  FAIR      -2  -6  84 SW3       30.64S
TWO HARBORS    FAIR       0  -6  78 CALM      30.57F
GRAND MARAIS     N/A     11  -1  58 NW3       30.65S
G MARAIS ARPRT FAIR       0  -9  65 CALM      30.55R
$$
MNZ029>031-032-039>041-046>048-054>057-064-221500-
   West Central Minnesota

CITY           SKY/WX    TMP DP  RH WIND       PRES   REMARKS
FERGUS FALLS   FAIR       9   1  72 SE15      30.48S WCI  -8
WHEATON        FAIR       0  -6  78 SE12      30.49S WCI -18
MORRIS         FAIR       1  -2  85 SE12      30.49S WCI -15
ALEXANDRIA     FAIR       2  -2  83 SE8       30.49R WCI -12
ELBOW LAKE     FAIR       6  -1  74 E13       30.48S WCI -10
WADENA         FAIR       0  -6  78 SE6       30.48S WCI -12
GLENWOOD       FAIR       1  -2  85 SE7       30.51S WCI -11
APPLETON       CLOUDY     9   1  72 SE6       30.52R WCI  -1
BENSON         MOCLDY     9   1  72 SE3       30.53R
MADISON        CLOUDY    10   5  79 SE10      30.51R WCI  -3
WILLMAR        FAIR       9   1  72 E8        30.54S WCI  -4
$$
MNZ033>034-036-042>043-049>051-058-059-221500-
   Central Minnesota

CITY           SKY/WX    TMP DP  RH WIND       PRES   REMARKS
ST CLOUD       FAIR      -6 -10  83 CALM      30.57S
SAUK CENTRE    FAIR      -1  -5  86 SE8       30.52R WCI -16
PAYNESVILLE    FAIR       5   2  87 E5        30.54S WCI  -4
AITKIN         FAIR     -11 -17  77 CALM      30.55S
PINE RIVER     FAIR      -9 -15  77 SE3       30.56R
BRAINERD       FAIR     -10 -15  78 CALM      30.56R
STAPLES        FAIR      -4  -8  84 E5        30.50F WCI -15
LONG PRAIRIE   FAIR       0  -4  85 E7        30.52R WCI -13
LITTLE FALLS   FAIR      -8 -17  65 CALM      30.56F
LITCHFIELD     FAIR       3   0  85 E6        30.54F WCI  -8
BUFFALO        FAIR       3  -1  83 CALM      30.58F
MAPLE LAKE     FAIR       1  -2  88 CALM      30.57F
HUTCHINSON     MOCLDY    11   5  78 E6        30.55F WCI   1
$$
MNZ037-044-045-052-053-221500-
   East Central Minnesota

CITY           SKY/WX    TMP DP  RH WIND       PRES   REMARKS
PRINCETON      FAIR      -6  -9  84 CALM      30.58R
CAMBRIDGE        N/A      0  -9  65 CALM      30.61S
RUSH CITY      FAIR      -3  -7  84 CALM      30.61R
MOOSE LAKE     FAIR     -13 -18  77 NE3       30.57S
HINCKLEY       FAIR      -9 -15  77 CALM      30.60R
CLOQUET        FAIR      -4  -9  77 CALM      30.56S
MCGREGOR       FAIR      -6  -9  84 CALM      30.56S
$$
MNZ071>073-080-081-089-090-097-098-221500-
   Southwest Minnesota

CITY           SKY/WX    TMP DP  RH WIND       PRES   REMARKS
MONTEVIDEO     MOCLDY     7   1  78 S5        30.52R WCI  -2
GRANITE FALLS  CLOUDY     8   3  80 E5        30.53S WCI   0
CANBY          CLOUDY     8   5  84 E6        30.50R WCI  -2
MARSHALL       CLOUDY    11   5  77 S12       30.50S WCI  -3
REDWOOD FALLS  CLOUDY    10   4  76 E7        30.53S WCI  -1
OLIVIA         FAIR      12   5  73 E8        30.52F WCI   1
PIPESTONE      CLOUDY    16  10  79 SE5       30.43S WCI   9
WORTHINGTON    FLURRIES  15  12  88 E8        30.46S WCI   4
JACKSON        CLOUDY    16  12  86 NE7       30.48S WCI   6
TRACY          LGT SNOW  12   9  85 SE6       30.49R WCI   3
SLAYTON        FLURRIES  14  12  89 E6        30.46S WCI   5
$$
MNZ065>067-074>077-082>085-091>093-221500-
   South Central Minnesota

CITY           SKY/WX    TMP DP  RH WIND       PRES   REMARKS
MANKATO        LGT SNOW  17  12  80 E7        30.54S WCI   8
NEW ULM        CLOUDY    12   7  79 E8        30.53S WCI   1
ST JAMES       LGT SNOW  16  10  79 NE5       30.53S WCI   9
FAIRMONT       CLOUDY    16  13  88 NE5       30.52R WCI   9
GLENCOE        MOCLDY    12   7  81 E3        30.55S
FARIBAULT      CLOUDY    16  10  79 E3        30.54F
OWATONNA       CLOUDY    16  10  79 E10       30.52S WCI   3
WASECA         CLOUDY    18  12  79 NE8       30.53S WCI   7
ALBERT LEA     FLURRIES  21  18  86 E7        30.50F WCI  13
$$
MNZ078>079-086>088-094>096-221500-
   Southeast Minnesota

CITY           SKY/WX    TMP DP  RH WIND       PRES   REMARKS
ROCHESTER      LGT SNOW  19  16  88 E12       30.53F FOG     WCI   7
RED WING       MOCLDY    12   5  73 SE7       30.60S WCI   2
STANTON        MOCLDY    12   8  82 NE3       30.56F
DODGE CENTER   CLOUDY    16  12  86 E9        30.52S WCI   4
WINONA         CLOUDY    18  12  79 CALM      30.62S
AUSTIN         FAIR      19  18  93 E9        30.51F WCI   9
PRESTON        CLOUDY    18  15  87 NE6       30.55R WCI  10
$$
ABBREVIATIONS USED IN REMARKS
   TC - TEMPERATURES IN CELSIUS
  WCI - WIND CHILL INDEX
   HX - HEAT INDEX
  VSB - VISIBILITY
$$




USA.gov is the U.S. government's official web portal to all federal, state and local government web resources and services.